Погода в Новокубанске

Россия / Краснодарский край     45°06′13″N   41°02′50″E
темп.,
°C
ветер,
м/с
пор.,
м/с
влажн.,
%
обл.,
%
осадки,
мм/ч
давл.,
гПа
погр.,
м
25 января, пн
пн2500:00+1юв4478100 0.0 102073
03:00+2ююв3371100 0.0 101928
06:00+2ююв3367100 0.0 102027
09:00+3юв346273 0.0 102032
12:00+7юв47640 0.0 1019191
15:00+7вюв48640 0.0 1018159
18:00+3вюв59633 0.0 1018117
21:00+2юв6117022 0.0 1016149
26 января, вт
вт2600:00+2юв5873100 0.0 1016124
03:00+3ю2367100 0.0 101633
06:00+3юв2367100 0.0 101723
09:00+4ююв4667100 0.0 101990
12:00+7юв4761100 0.0 1019176
15:00+8юв5860100 0.0 1018190
18:00+6юв7146482 0.0 1018263
21:00+6юв7176588 0.0 1017311
27 января, ср
ср2700:00+6юв6136559 0.0 1016214
03:00+5юв586780 0.0 1015129
06:00+4юв5870100 0.0 1013124
09:00+5юв61066100 0.0 1012174
12:00+7вюв6860100 0.0 1010207
15:00+8вюв61060100 0.0 1007255
18:00+5юв61172100 0.0 1007210
21:00+4юв6980100 0.0 1007148
28 января, чт
чт2800:00+5юв5677100 0.0 100698
03:00+5юв5871100 0.0 1005117
06:00+5зюз3467100 0.0 100545
09:00+6с2366100 0.0 100659
12:00+8сз3679100 0.1 1006586
15:00+8сз3585100 0.1 1005516
18:00+6ссз5797100 2.8 1007337
21:00+4зсз6995100 5.3 1008484
29 января, пт
пт2900:00+2сз5896100 1.8 1009429
03:00+1зсз4683100 2.1 1010588
06:00+1зюз2387100 0.0 1011328
09:00+1з2388100 0.0 1012351
12:00+3зсз3370100 0.0 1013775
15:00+3зсз2358100 0.0 1012863
18:00+1з1269100 0.0 101322
21:00+1ю2374100 0.0 101448